Wind_Speed
27 26 23 19 17 17 17 13 11 10 9 8 9 10 12 16 16 15 11 12 11 12 14 15 17 18 16 19 21 20 20 21 25 27 26 25 25 30 30 31 32 35 38 42 42 41 39
28 27 28 24 20 18 15 9 10 12 11 10 10 8 8 10 11 9 8 9 11 13 14 15 15 18 20 18 21 25 29 31 31 27 28 26 28 33 33 35 36 38 38 40 43 41 40
30 29 28 29 28 24 19 17 18 17 16 16 12 11 10 9 8 9 9 12 14 13 13 15 17 20 21 20 23 25 24 25 26 32 33 35 36 37 38 38 37 37 36 45 48 44 37
30 29 32 30 30 29 28 27 25 26 24 22 21 19 19 17 17 16 15 18 18 20 20 20 21 21 24 27 26 27 27 29 31 34 37 38 37 44 46 46 46 49 47 50 48 44 40
28 33 32 34 35 33 34 35 34 31 26 26 27 25 25 22 18 18 17 17 22 25 28 30 29 30 31 32 31 30 31 33 34 33 34 36 39 39 44 43 43 51 47 50 56 57 49
31 32 34 39 37 36 40 37 38 38 37 33 30 28 28 27 26 24 24 26 26 31 34 36 35 35 39 39 41 43 39 37 38 40 39 39 37 41 44 47 41 42 39 36 47 56 43
34 35 39 41 47 40 43 39 37 41 42 41 38 35 34 30 31 31 37 40 40 43 42 37 37 43 40 43 45 48 52 52 47 47 46 46 42 47 53 54 53 46 42 44 45 49 42
43 42 40 46 46 48 46 43 37 37 40 43 43 44 43 41 41 44 46 46 47 47 48 48 44 46 50 52 49 49 54 53 59 54 51 49 49 56 57 60 61 57 55 49 49 52 50
48 40 41 45 51 52 46 44 36 29 33 40 44 47 49 53 53 54 54 54 52 49 47 49 54 54 54 54 51 54 52 56 58 61 62 57 57 62 65 66 67 67 63 61 59 55 54
44 41 43 45 46 52 50 42 41 37 36 38 41 43 45 51 52 53 53 54 53 52 52 54 56 60 58 57 55 57 59 56 58 62 65 65 66 65 68 71 74 71 74 70 67 63 60
56 56 45 48 43 54 54 45 41 37 36 37 36 37 41 46 51 54 55 53 54 52 53 51 54 54 56 59 61 61 61 62 66 68 72 74 72 74 76 77 76 77 77 77 77 75 72
56 55 51 46 43 54 56 54 42 39 37 37 37 37 38 39 40 45 49 52 54 55 56 57 59 62 65 65 66 69 71 72 74 74 75 79 77 78 79 81 82 81 80 82 84 84 81
63 61 47 47 48 53 58 50 44 41 40 42 41 43 45 46 48 50 52 56 59 59 61 62 67 69 71 74 75 77 78 79 82 84 82 81 82 84 85 87 88 89 90 91 90 88 86
67 63 49 57 56 52 55 50 43 42 44 47 50 51 54 55 57 60 61 64 66 69 72 73 75 77 79 83 83 85 87 85 88 89 91 90 88 92 91 94 97 98 98 98 99 94 91
70 66 60 60 57 61 58 53 49 46 48 52 55 58 59 62 64 69 71 74 79 82 82 84 86 87 87 89 92 90 92 95 96 99 100 98 95 97 100 102 102 102 104 107 107 102 102
73 61 63 65 66 65 60 56 56 57 57 60 64 68 70 71 74 77 78 83 89 92 92 92 93 98 98 96 98 100 102 99 101 103 105 106 106 103 105 107 105 107 110 110 110 109 108
72 70 72 71 70 68 68 66 66 68 69 69 69 74 75 76 80 87 92 93 95 97 100 104 106 107 106 106 111 113 115 110 109 112 110 113 115 112 112 114 115 114 112 112 113 114 115
77 78 80 81 74 70 71 72 74 78 78 76 77 80 85 89 93 97 101 101 105 107 112 114 116 114 117 119 117 117 113 116 120 118 119 123 121 115 116 116 116 117 116 118 120 120 122
81 82 84 88 83 82 81 83 84 86 86 87 90 92 97 104 107 109 112 112 115 118 118 125 123 121 124 122 123 124 122 124 123 125 126 126 123 119 116 114 116 119 118 120 124 122 119
85 88 90 94 94 92 91 93 97 100 102 103 104 106 109 112 118 119 122 123 124 123 127 128 127 130 133 133 137 130 129 124 123 124 122 122 122 119 115 116 118 120 118 120 121 118 115
92 96 100 101 105 99 97 100 102 107 112 116 118 121 122 122 124 130 132 131 133 134 133 133 133 137 136 131 128 130 126 121 118 119 121 123 123 119 115 114 116 114 112 113 112 110 106
99 102 104 106 107 105 106 109 117 118 122 127 132 138 140 137 134 132 129 133 134 135 133 132 133 129 128 125 123 121 121 116 115 116 116 117 115 112 106 110 109 104 100 103 103 101 99
103 103 107 110 111 112 114 118 123 128 137 138 142 143 147 137 137 135 128 130 127 128 125 124 122 120 118 116 116 115 113 109 110 108 107 106 105 105 98 99 100 92 92 95 94 95 96
109 109 109 113 115 120 122 127 132 137 146 149 150 150 146 142 134 129 128 123 115 114 113 110 112 113 109 110 110 109 106 104 103 102 102 100 99 100 94 92 90 88 89 91 92 92 93
110 114 116 119 123 128 134 138 143 149 149 145 146 144 139 133 123 116 114 109 107 109 106 104 104 104 103 104 106 104 104 102 102 98 98 98 98 97 96 94 90 86 88 89 89 91 90
115 118 124 130 136 137 140 145 143 147 145 141 134 122 115 113 109 112 108 104 100 99 95 95 91 91 92 93 97 98 97 97 93 93 94 94 94 94 94 93 89 85 87 88 89 87 88
123 127 132 137 140 143 148 147 143 136 134 119 112 107 104 104 99 97 94 92 86 86 82 80 77 79 78 81 81 87 86 86 84 84 85 88 89 87 87 87 83 81 82 84 85 83 84
131 136 140 143 149 153 153 152 129 126 110 105 100 96 91 90 83 82 79 78 78 77 74 72 70 69 68 70 71 73 73 70 73 73 74 76 78 78 79 80 79 79 78 79 80 79 78
138 144 145 149 151 145 145 138 123 110 103 95 88 84 81 78 75 73 71 69 67 66 63 63 63 63 62 61 61 62 61 60 62 61 63 64 67 67 68 70 73 73 73 72 72 71 70
Wind_Direction
10 6 6 8 10 8 9 5 8 4 350 332 306 287 275 267 266 266 262 267 269 272 278 278 282 290 296 300 302 295 284 289 302 305 305 315 313 313 311 315 324 323 324 325 324 327 320
2 356 351 345 332 326 334 338 338 334 329 323 315 290 272 260 250 231 269 282 287 284 291 298 294 295 301 296 292 294 281 286 286 288 298 301 305 312 308 310 317 322 323 322 321 322 324
5 357 346 333 323 316 312 300 293 291 292 288 296 285 261 249 242 254 269 291 296 298 286 285 292 295 293 291 293 295 283 287 287 293 296 298 297 296 298 300 306 319 324 317 315 320 319
1 351 346 341 328 314 301 293 295 288 285 279 266 274 272 254 256 264 278 282 286 288 285 286 285 284 284 282 287 286 288 289 291 292 291 297 298 300 290 289 298 304 306 308 311 313 319
345 344 342 335 331 319 311 291 287 281 277 279 271 270 266 264 263 263 274 288 292 296 293 285 280 276 276 278 286 287 286 290 293 292 292 292 293 299 299 298 298 296 300 301 303 302 306
342 342 343 346 327 328 314 298 283 280 273 272 272 268 266 257 256 265 273 283 289 291 289 290 283 281 278 277 280 281 284 292 296 293 292 292 294 300 292 303 303 297 295 301 296 298 304
329 334 342 344 343 322 322 307 284 278 273 270 264 263 267 262 256 267 274 279 283 296 290 286 285 279 280 285 282 279 281 283 290 293 288 288 290 295 297 299 300 300 293 298 290 292 301
330 327 338 343 340 338 323 320 303 277 273 270 267 264 265 262 260 265 270 274 278 286 285 287 285 281 284 291 287 288 285 282 277 286 290 285 286 290 293 294 295 296 298 295 293 291 294
332 323 327 332 343 340 324 325 319 304 287 282 283 278 272 268 268 267 272 275 278 282 283 286 288 288 288 285 287 286 289 280 276 282 287 289 283 286 289 292 292 293 295 293 293 291 291
328 324 323 330 328 338 334 314 320 306 297 293 289 290 287 285 277 276 279 280 283 280 279 281 281 284 283 283 285 285 285 285 284 286 290 291 287 285 287 288 291 292 292 292 291 291 291
324 319 320 325 327 336 336 322 309 312 306 303 302 298 292 287 286 285 287 288 286 284 285 281 281 282 282 282 284 283 284 286 285 284 287 288 289 289 290 289 290 290 290 291 292 291 290
323 318 310 321 324 331 332 329 309 302 304 306 306 304 301 296 290 288 287 288 289 288 287 287 287 287 286 286 286 286 287 287 288 287 287 287 287 287 288 288 289 289 288 288 289 289 289
318 314 311 322 321 320 326 324 309 299 298 299 300 299 298 297 295 294 293 294 292 293 291 292 291 290 290 289 288 289 290 289 289 288 289 288 288 287 289 291 291 290 290 290 290 289 288
314 315 309 319 318 317 322 319 311 299 297 298 301 301 299 297 296 295 296 296 296 295 293 293 292 290 290 290 289 289 291 291 291 292 291 290 289 289 290 289 290 290 290 291 290 290 289
310 310 313 318 316 319 319 315 313 304 299 297 296 295 295 296 296 297 298 300 297 295 294 294 294 294 294 295 293 291 291 292 291 292 291 289 289 288 289 289 288 289 290 289 290 290 290
312 311 313 314 316 314 313 311 310 309 302 297 295 295 295 295 295 295 294 293 293 295 294 293 294 295 293 291 290 289 291 292 289 288 288 288 288 288 288 286 287 286 287 287 287 287 288
308 314 316 315 314 310 313 309 309 307 305 301 298 296 294 292 292 292 295 296 296 296 296 295 295 295 292 291 291 291 292 289 291 288 285 286 287 287 287 286 286 286 285 285 285 284 285
309 313 317 319 316 312 310 308 306 305 304 303 300 299 299 297 296 297 300 298 298 295 295 296 296 293 292 290 289 288 287 287 287 286 284 285 285 284 283 283 283 283 284 285 284 284 284
309 312 314 315 314 311 308 307 306 305 302 302 301 300 298 299 299 298 298 297 298 298 294 295 293 289 290 289 289 287 289 287 285 285 285 285 284 282 281 279 280 281 281 280 281 281 282
308 310 311 312 314 311 307 307 306 306 305 305 303 303 304 303 302 300 299 300 298 296 295 293 293 293 291 291 292 289 288 285 284 284 282 281 280 280 278 277 278 278 278 279 279 280 279
306 309 310 311 311 311 309 308 306 305 306 307 309 308 306 304 304 303 302 301 302 298 294 292 290 291 289 288 288 287 284 282 281 282 280 279 279 278 277 276 277 278 279 279 280 279 278
307 307 309 309 309 309 308 309 308 309 313 311 311 309 307 306 303 299 300 298 296 293 290 289 289 287 286 285 283 283 281 280 279 279 279 279 279 279 278 277 277 277 278 278 277 277 277
306 307 308 308 310 310 309 309 313 313 312 313 312 309 305 302 302 299 293 292 293 290 289 287 286 285 284 283 281 280 280 279 279 278 278 278 278 279 278 277 277 278 276 275 275 275 275
308 309 309 308 308 309 312 313 313 313 312 312 309 306 303 301 299 296 294 291 291 289 287 285 284 283 282 281 280 279 279 277 277 277 278 279 278 277 277 276 275 274 274 274 274 274 274
309 308 307 309 312 314 315 315 314 313 310 310 307 306 301 300 299 295 293 293 291 290 289 286 282 281 280 278 277 277 276 277 276 277 277 277 276 276 275 275 274 274 272 273 273 273 273
306 308 313 316 315 317 315 315 312 313 311 309 304 301 301 298 298 298 296 294 292 288 286 286 284 281 279 277 277 277 275 275 275 275 274 274 275 275 276 275 275 273 273 273 272 273 273
311 315 315 316 317 315 315 315 316 314 313 307 304 303 300 300 299 297 295 294 293 291 290 287 286 283 280 278 277 275 276 276 277 275 274 275 274 274 274 273 274 272 271 271 272 271 272
315 314 315 316 315 317 317 316 312 318 314 311 307 307 305 303 301 298 297 296 295 295 293 291 289 285 284 280 279 278 279 278 276 275 273 272 272 272 273 274 275 273 272 271 271 272 272
313 315 315 317 320 322 322 317 319 318 315 313 314 312 308 305 303 300 299 297 296 295 294 292 290 288 286 284 283 283 283 281 276 275 274 273 273 273 274 273 273 273 274 273 274 273 272
Height
10767 10765 10763 10761 10760 10758 10755 10752 10750 10748 10746 10743 10741 10740 10739 10738 10738 10737 10736 10734 10733 10732 10731 10730 10729 10727 10726 10725 10723 10721 10719 10718 10716 10714 10711 10708 10706 10703 10698 10696 10694 10689 10683 10680 10675 10672 10666
10767 10766 10764 10763 10761 10758 10757 10755 10752 10749 10746 10743 10740 10738 10736 10735 10734 10733 10732 10731 10729 10727 10726 10724 10723 10722 10720 10719 10718 10716 10714 10711 10710 10708 10705 10702 10699 10696 10692 10689 10688 10683 10679 10673 10669 10666 10661
10767 10765 10762 10760 10758 10756 10753 10752 10749 10747 10745 10742 10740 10736 10734 10732 10731 10730 10729 10727 10725 10724 10722 10720 10718 10716 10714 10713 10711 10709 10707 10705 10702 10701 10698 10695 10693 10689 10685 10682 10680 10678 10674 10668 10662 10660 10659
10765 10762 10760 10757 10754 10751 10750 10747 10744 10742 10739 10738 10736 10734 10732 10729 10727 10726 10725 10723 10721 10719 10718 10716 10714 10712 10708 10706 10704 10702 10699 10697 10695 10692 10689 10686 10684 10681 10677 10674 10673 10669 10669 10662 10654 10652 10653
10763 10760 10756 10753 10749 10746 10743 10740 10739 10736 10733 10731 10729 10728 10726 10725 10723 10721 10719 10717 10716 10713 10710 10708 10708 10705 10702 10699 10696 10693 10691 10689 10686 10683 10679 10676 10675 10672 10666 10664 10664 10661 10661 10656 10647 10642 10645
10759 10756 10751 10747 10743 10739 10735 10731 10728 10727 10726 10724 10722 10720 10719 10718 10715 10713 10712 10710 10708 10707 10704 10702 10699 10696 10693 10691 10687 10683 10681 10678 10675 10673 10670 10667 10665 10662 10654 10653 10654 10651 10650 10647 10641 10632 10633
10755 10751 10745 10740 10736 10730 10726 10720 10717 10716 10715 10714 10713 10712 10710 10710 10707 10706 10703 10702 10700 10697 10693 10692 10691 10685 10683 10680 10676 10673 10670 10667 10664 10662 10658 10656 10655 10648 10643 10641 10641 10639 10638 10636 10629 10623 10626
10751 10746 10740 10734 10728 10722 10716 10710 10705 10703 10704 10703 10703 10702 10701 10701 10698 10696 10695 10692 10691 10689 10682 10682 10680 10676 10671 10668 10665 10660 10656 10654 10651 10649 10645 10644 10643 10632 10630 10626 10624 10623 10623 10622 10620 10613 10613
10743 10739 10734 10728 10722 10715 10708 10702 10697 10695 10695 10694 10694 10692 10691 10690 10688 10687 10684 10682 10680 10678 10676 10668 10664 10662 10659 10655 10652 10648 10643 10639 10637 10634 10630 10629 10626 10620 10614 10610 10606 10606 10605 10604 10603 10600 10600
10738 10733 10728 10722 10715 10708 10701 10697 10693 10689 10687 10686 10685 10682 10679 10676 10676 10674 10673 10670 10667 10665 10666 10661 10654 10647 10643 10640 10637 10633 10629 10626 10621 10618 10614 10612 10606 10604 10600 10594 10587 10589 10580 10583 10583 10582 10584
10730 10727 10721 10714 10708 10702 10695 10689 10686 10682 10679 10676 10675 10671 10669 10666 10663 10662 10660 10657 10654 10650 10649 10645 10639 10633 10629 10625 10621 10618 10613 10609 10604 10602 10598 10591 10590 10585 10580 10573 10569 10568 10563 10560 10559 10559 10563
10721 10717 10712 10705 10700 10695 10689 10683 10677 10674 10671 10667 10664 10661 10657 10656 10653 10650 10647 10643 10639 10635 10631 10628 10624 10619 10614 10609 10605 10600 10595 10591 10584 10583 10580 10572 10570 10566 10560 10553 10547 10544 10542 10538 10535 10534 10538
10711 10707 10703 10696 10691 10686 10681 10675 10669 10666 10662 10659 10656 10653 10649 10645 10641 10637 10633 10629 10624 10618 10614 10613 10606 10601 10597 10589 10585 10579 10575 10571 10563 10560 10558 10554 10547 10542 10535 10529 10521 10518 10515 10510 10509 10508 10509
10701 10697 10691 10686 10681 10675 10669 10665 10660 10656 10652 10647 10643 10640 10636 10631 10626 10621 10617 10612 10605 10600 10593 10590 10584 10578 10575 10567 10561 10555 10551 10547 10540 10533 10530 10527 10526 10516 10512 10503 10498 10492 10486 10479 10474 10482 10481
10690 10686 10679 10673 10668 10662 10658 10653 10650 10646 10642 10637 10630 10625 10621 10614 10608 10602 10597 10592 10582 10576 10571 10564 10557 10552 10548 10540 10529 10528 10525 10521 10514 10504 10496 10493 10498 10490 10486 10479 10472 10466 10458 10450 10444 10448 10447
10678 10672 10666 10661 10655 10649 10644 10640 10636 10632 10628 10624 10617 10607 10602 10595 10588 10581 10576 10570 10559 10551 10544 10537 10531 10522 10518 10509 10502 10496 10493 10492 10483 10476 10466 10462 10459 10462 10456 10448 10444 10437 10430 10423 10416 10412 10413
10665 10659 10653 10646 10641 10635 10630 10624 10619 10615 10611 10605 10600 10590 10583 10576 10568 10559 10553 10545 10535 10524 10513 10504 10500 10489 10483 10475 10470 10463 10459 10452 10449 10442 10434 10429 10428 10433 10425 10414 10405 10400 10397 10390 10384 10379 10378
10650 10644 10637 10629 10624 10618 10613 10607 10601 10594 10589 10584 10578 10569 10560 10553 10543 10532 10524 10514 10505 10496 10479 10467 10463 10454 10447 10438 10435 10426 10425 10417 10409 10402 10397 10393 10390 10397 10393 10381 10376 10368 10361 10351 10344 10343 10340
10635 10627 10620 10614 10607 10600 10593 10585 10577 10571 10563 10560 10554 10548 10537 10520 10507 10499 10488 10479 10468 10458 10443 10430 10421 10412 10404 10397 10383 10387 10385 10378 10368 10362 10356 10350 10345 10348 10352 10343 10337 10333 10328 10320 10309 10305 10306
10616 10610 10602 10596 10588 10580 10571 10562 10553 10543 10533 10528 10522 10516 10506 10493 10476 10462 10446 10439 10424 10412 10399 10383 10377 10364 10355 10349 10341 10338 10337 10330 10327 10324 10312 10303 10303 10308 10307 10295 10295 10293 10290 10283 10273 10272 10268
10599 10591 10583 10574 10566 10558 10548 10537 10526 10513 10501 10491 10481 10473 10460 10450 10434 10414 10396 10385 10372 10364 10352 10341 10331 10318 10305 10305 10299 10288 10283 10284 10281 10282 10273 10261 10257 10262 10264 10259 10252 10253 10256 10243 10238 10234 10232
10580 10572 10563 10553 10544 10534 10522 10509 10496 10482 10466 10453 10436 10418 10405 10402 10390 10369 10358 10338 10323 10312 10296 10297 10280 10274 10262 10258 10249 10252 10236 10238 10239 10236 10231 10222 10217 10221 10229 10220 10216 10220 10224 10212 10202 10199 10200
10560 10552 10541 10531 10519 10509 10497 10484 10466 10446 10425 10406 10385 10369 10346 10348 10328 10319 10309 10285 10276 10256 10255 10240 10232 10225 10219 10213 10206 10203 10199 10202 10195 10197 10192 10189 10185 10182 10190 10187 10180 10190 10189 10178 10174 10170 10168
10539 10528 10518 10508 10497 10483 10467 10450 10433 10413 10388 10365 10346 10315 10294 10282 10277 10259 10249 10238 10227 10216 10203 10200 10191 10180 10182 10173 10166 10164 10162 10163 10160 10161 10157 10157 10154 10147 10153 10154 10156 10160 10155 10147 10143 10141 10139
10518 10507 10495 10482 10466 10449 10432 10415 10395 10374 10352 10331 10304 10273 10249 10225 10218 10212 10197 10192 10182 10170 10160 10155 10152 10148 10145 10138 10130 10130 10126 10126 10126 10129 10126 10122 10120 10118 10118 10118 10125 10131 10124 10120 10117 10113 10113
10494 10481 10467 10452 10436 10418 10398 10379 10358 10335 10306 10281 10256 10234 10210 10193 10184 10160 10154 10147 10140 10129 10126 10119 10116 10109 10105 10102 10094 10092 10093 10093 10099 10098 10092 10092 10090 10088 10087 10086 10092 10096 10091 10089 10087 10090 10085
10468 10453 10438 10420 10404 10384 10365 10339 10311 10285 10257 10235 10212 10194 10175 10157 10146 10131 10120 10109 10103 10093 10092 10089 10086 10077 10075 10069 10068 10059 10063 10064 10068 10069 10066 10061 10058 10059 10058 10056 10062 10064 10063 10059 10058 10062 10058
10441 10425 10409 10392 10373 10348 10320 10292 10264 10237 10215 10197 10175 10157 10142 10126 10117 10103 10094 10085 10075 10068 10065 10060 10055 10050 10047 10042 10040 10038 10039 10042 10039 10040 10039 10037 10033 10031 10028 10028 10030 10030 10032 10033 10032 10033 10033
10414 10400 10380 10358 10331 10300 10273 10248 10225 10200 10182 10165 10146 10129 10114 10101 10091 10079 10070 10063 10056 10049 10044 10036 10030 10026 10024 10022 10019 10017 10017 10017 10012 10015 10012 10012 10009 10009 10008 10005 10003 10003 10005 10005 10006 10007 10007